This demonstration page uses our WeatherBlox Daily Observations layout. Learn more.

Left ArrowRight Arrow

36.19886, -115.1175

Hourly Observations for May 24, 2020

Temp ( °F °C ) Dew Point ( °F °C ) Humidity (%) Winds ( mph kmh ) Pressure ( in mb ) Visibility ( mi km ) Precip ( " mm )
12:53 am 00:53 Clear 71 21.7 15 -9.4 12 12 NE 6 9 29.89 1012 10 16 N/A
1:53 am 01:53 Clear 68 20 17 -8.3 14 14 ESE 6 9 29.89 1012 10 16 N/A
2:53 am 02:53 Clear 67 19.4 21 -6.1 17 17 SW 6 9 29.91 1013 10 16 N/A
3:53 am 03:53 Clear 67 19.4 21 -6.1 17 17 N N/A 29.92 1013 10 16 N/A
4:53 am 04:53 Clear 63 17.2 21 -6.1 20 20 NNW 5 7 29.95 1014 10 16 N/A
5:53 am 05:53 Sunny 63 17.2 22 -5.6 21 21 N N/A 29.97 1015 10 16 N/A
6:53 am 06:53 Sunny 67 19.4 21 -6.1 17 17 N N/A 29.98 1015 10 16 N/A
7:53 am 07:53 Sunny 70 21.1 22 -5.6 16 16 VRB 6 9 29.99 1016 10 16 N/A
8:53 am 08:53 Sunny 73 22.8 21 -6.1 14 14 N 3 6 30.00 1016 10 16 N/A
9:53 am 09:53 Sunny 75 23.9 20 -6.7 12 12 E 7 11 29.99 1016 10 16 N/A
10:53 am 10:53 Sunny 78 25.6 22 -5.6 12 12 ENE 8 13 29.99 1016 10 16 N/A
11:53 am 11:53 Sunny 80 26.7 22 -5.6 11 11 ENE 5 7 29.97 1015 10 16 N/A
12:53 pm 12:53 Sunny 82 27.8 22 -5.6 11 11 WNW 8 13 29.94 1014 10 16 N/A
1:53 pm 13:53 Sunny 86 30 16 -8.9 7 7 WNW 12 19 29.92 1013 10 16 N/A
2:53 pm 14:53 Sunny 89 31.7 17 -8.3 7 7 NW 18 30 29.88 1012 10 16 N/A
3:53 pm 15:53 Sunny 89 31.7 18 -7.8 7 7 W 10 17 29.86 1011 10 16 N/A
4:53 pm 16:53 Sunny 88 31.1 17 -8.3 7 7 W 16 26 29.85 1011 10 16 N/A
5:15 pm 17:15 Sunny 88 31.1 17 -8.3 7 7 NNE 10 17 29.69 1005 10 16 N/A
5:53 pm 17:53 Sunny 89 31.7 19 -7.2 7 7 N 8 13 29.83 1010 10 16 N/A
6:53 pm 18:53 Sunny 86 30 18 -7.8 8 8 VRB 3 6 29.84 1010 10 16 N/A
7:53 pm 19:53 Clear 85 29.4 20 -6.7 9 9 NW 5 7 29.84 1011 10 16 N/A
8:53 pm 20:53 Clear 82 27.8 19 -7.2 9 9 ENE 5 7 29.86 1011 10 16 N/A
9:53 pm 21:53 Clear 80 26.7 20 -6.7 10 10 N N/A 29.87 1012 10 16 N/A
10:53 pm 22:53 Clear 78 25.6 23 -5 13 13 N 10 17 29.89 1012 10 16 N/A
11:53 pm 23:53 Clear 78 25.6 22 -5.6 12 12 NE 10 17 29.91 1013 10 16 N/A

Powered by AerisWeather